Wind_Speed
18 19 20 21 23 26 27 28 30 31 32 33 33 34 34 35 36 36 37 37 39 41 41 42 43 43 44 46 48 48 49 50 51 51 51 51 52 52 51 51 51 50 49
22 23 25 26 28 29 29 30 32 34 33 33 33 34 35 37 39 41 41 42 43 45 45 46 47 48 49 50 51 53 54 55 56 56 56 56 56 57 58 58 57 58 56
25 26 27 29 29 28 29 31 31 31 34 33 31 35 36 37 39 40 43 43 44 45 47 48 49 50 52 53 53 54 56 58 59 61 63 63 63 63 64 63 63 62 62
28 27 29 31 30 28 29 32 34 35 36 37 37 36 35 37 42 44 45 47 48 48 49 49 51 51 52 54 55 55 56 58 59 61 64 65 67 68 69 69 68 68 70
29 31 31 30 31 32 34 37 38 39 38 40 40 40 40 39 39 41 42 44 46 46 47 48 48 48 48 47 48 48 48 47 48 49 50 53 57 63 68 71 73 74 72
31 33 34 34 35 37 39 41 39 38 39 39 39 39 41 41 42 42 43 43 42 41 40 40 39 39 38 38 38 39 41 42 44 46 48 49 51 53 52 54 58 62 67
33 36 38 40 41 41 40 38 36 37 39 39 39 39 40 39 39 39 37 36 36 35 34 34 34 32 34 39 42 43 45 47 50 51 53 55 57 59 59 60 59 59 60
34 37 38 39 38 36 37 37 37 37 37 37 38 38 37 35 33 33 33 33 32 31 32 32 35 38 40 43 47 50 53 55 57 58 60 62 63 65 66 66 67 67 67
37 39 40 43 36 36 33 33 34 35 36 36 36 35 34 32 32 33 34 32 32 32 35 36 40 43 46 48 50 52 55 57 59 61 63 64 65 65 66 67 69 69 70
38 38 37 35 33 31 30 31 31 31 31 31 31 31 29 29 29 32 33 33 35 38 40 43 46 48 49 52 55 58 61 64 65 67 69 70 71 72 71 71 72 72 73
32 34 33 30 27 29 31 30 29 29 29 30 31 29 27 28 30 32 32 34 38 40 42 44 46 49 54 57 59 62 64 67 69 70 73 75 76 77 77 76 76 76 77
32 29 26 26 27 29 31 30 29 28 29 30 29 29 29 30 32 33 32 35 39 43 44 45 49 53 57 60 62 65 68 70 72 73 73 74 74 74 76 78 81 83 83
25 24 25 26 27 29 29 28 27 27 26 26 26 28 30 31 33 33 34 37 40 42 44 48 52 57 60 63 66 69 70 70 71 71 73 74 75 76 77 79 80 82 84
21 24 25 26 26 26 25 23 23 23 24 25 27 28 31 33 35 37 39 40 41 44 48 52 56 60 64 67 70 70 70 71 72 73 74 77 79 80 81 81 82 83 83
22 24 24 24 23 22 20 20 21 21 24 25 28 30 33 35 37 40 42 44 45 47 51 56 60 64 67 71 72 73 72 73 75 77 80 83 84 84 83 80 76 72 69
22 21 20 20 18 17 17 18 20 22 24 27 29 31 34 36 39 42 44 45 47 51 54 58 61 66 70 70 70 71 73 76 80 82 84 81 82 77 74 71 67 62 59
18 16 16 16 15 15 16 18 21 23 25 27 28 31 33 36 39 40 43 46 50 53 55 58 64 68 68 68 69 72 76 79 82 78 71 73 71 69 67 64 62 60 57
15 15 15 14 13 15 17 19 21 22 24 26 28 30 33 36 38 41 45 48 51 54 57 61 66 67 67 68 70 74 77 78 72 66 67 62 59 60 58 56 54 51 48
15 13 12 12 14 15 17 19 20 21 23 26 29 30 33 37 41 45 48 51 55 57 60 65 67 66 67 68 72 74 75 65 61 59 59 60 55 55 51 48 45 39 38
13 12 12 13 15 16 17 18 19 22 25 27 29 33 37 40 44 47 52 55 58 59 63 67 67 67 67 69 73 72 61 55 56 53 53 54 53 50 47 43 39 33 28
12 12 13 15 15 16 16 18 21 23 26 30 34 37 40 43 47 51 55 58 61 62 65 67 67 66 67 69 72 68 54 52 52 48 50 49 49 47 44 39 35 31 28
11 12 13 14 14 15 17 20 22 25 30 33 36 39 42 46 49 53 58 60 62 62 66 67 67 66 69 71 69 56 49 50 46 46 47 48 48 46 43 38 34 30 26
10 11 12 13 14 16 19 21 24 29 32 34 37 40 44 47 50 53 58 60 61 63 66 67 66 67 70 71 65 51 48 50 48 45 46 46 46 44 41 38 34 31 26
9 10 12 13 15 18 21 24 28 31 33 34 38 42 45 48 50 55 58 60 60 64 65 66 67 70 71 69 58 48 47 47 47 45 46 47 43 41 37 35 31 27 24
11 12 13 15 18 21 24 27 29 31 34 37 41 45 48 50 52 56 59 59 60 63 64 66 67 70 69 63 51 46 45 42 41 43 44 45 42 36 33 29 26 23 22
13 14 16 18 21 24 26 28 29 32 35 39 44 48 50 50 54 57 59 58 60 62 62 64 67 69 66 54 46 46 42 40 41 41 43 42 41 33 28 25 24 22 21
Wind_Direction
279 285 291 298 302 301 301 299 298 300 300 294 288 289 290 288 287 287 287 287 287 287 286 286 285 284 283 283 283 283 282 282 281 280 280 281 281 281 280 281 279 278 278
279 288 294 301 305 304 301 297 300 299 300 299 290 285 287 289 289 287 286 286 286 286 286 286 286 285 284 282 282 282 283 282 282 282 280 279 279 279 278 278 278 277 276
283 291 300 304 306 303 300 301 303 301 298 300 298 286 284 286 285 287 290 289 288 287 287 287 286 285 285 284 283 282 282 282 281 281 281 281 280 278 275 275 275 274 275
286 295 303 304 302 301 304 303 300 302 301 300 300 298 295 290 286 286 287 289 290 289 288 286 285 284 284 284 284 284 283 282 281 280 280 280 281 281 279 278 275 273 273
287 297 301 304 300 300 303 303 302 300 299 299 296 297 297 295 293 291 290 288 288 287 286 286 287 288 288 288 288 289 290 290 289 288 286 284 282 279 277 277 278 276 273
285 295 301 302 298 299 302 302 302 301 298 296 296 298 298 299 298 297 296 295 294 295 295 295 294 293 293 294 294 293 293 292 292 291 290 288 285 283 282 281 280 278 276
286 292 299 299 300 298 300 301 300 299 298 299 299 300 300 300 300 297 295 295 295 295 294 295 295 295 295 298 300 300 299 297 296 294 291 288 286 285 284 283 281 280 279
286 290 297 301 300 299 300 298 298 297 299 300 300 301 300 300 299 298 298 298 299 301 302 302 302 304 305 305 303 302 300 299 297 295 294 293 292 290 288 285 283 282 280
291 292 294 297 293 294 294 296 297 300 301 302 302 302 304 305 306 308 308 307 308 307 307 308 308 309 308 306 304 302 301 299 298 296 294 292 290 289 287 286 284 282 280
291 293 293 290 292 293 295 296 298 299 299 301 301 303 302 303 305 308 307 306 307 309 309 310 310 309 308 308 307 306 305 303 302 300 299 297 295 294 291 289 286 284 282
285 286 285 287 290 293 294 296 297 297 298 299 299 297 296 300 303 308 306 304 303 304 305 307 308 309 310 310 308 306 306 304 302 300 298 296 295 293 292 290 289 286 283
279 278 282 285 290 293 295 295 294 295 297 297 297 298 300 302 305 305 302 303 306 308 308 308 309 310 311 312 311 310 308 305 304 302 299 296 293 291 290 288 287 286 283
274 278 282 288 293 293 292 291 293 294 295 297 299 302 303 304 305 304 304 305 306 308 310 310 312 313 313 313 313 312 310 307 305 302 300 298 296 293 290 287 284 282 280
272 279 286 290 289 288 289 293 296 299 300 303 307 307 308 310 310 310 309 308 308 309 311 311 313 313 314 314 314 315 312 309 305 303 301 298 296 294 291 289 287 284 282
275 282 286 287 287 288 293 295 298 302 307 310 311 314 315 315 315 315 315 314 313 311 314 313 313 316 318 319 318 316 313 310 307 306 304 303 301 299 297 295 293 289 286
278 282 284 285 288 292 296 302 307 310 311 314 317 319 319 319 320 320 320 320 319 318 318 319 321 323 322 321 319 316 314 313 311 310 310 310 306 304 300 296 293 289 287
274 278 284 288 293 299 305 307 310 311 315 318 322 323 323 324 324 325 326 325 324 323 323 327 327 326 324 322 320 318 317 318 317 317 316 314 312 309 304 300 295 289 285
273 280 286 290 298 303 306 310 312 315 321 325 326 327 328 327 329 330 330 330 329 328 328 330 329 327 325 324 323 321 322 321 320 323 322 320 321 317 315 309 302 293 287
273 282 286 295 300 306 310 311 314 321 325 327 329 332 332 334 335 334 333 333 333 332 332 332 330 328 326 325 324 325 326 324 323 327 327 328 325 325 326 322 315 300 285
274 282 292 298 305 308 310 315 322 327 329 331 333 334 335 336 335 335 336 334 334 334 333 333 331 329 327 326 327 328 327 324 326 330 329 336 333 334 332 332 332 327 304
274 286 296 303 307 309 313 320 327 330 333 333 334 335 336 335 335 336 336 335 334 334 335 333 331 329 327 328 331 332 328 328 328 334 331 337 333 337 338 339 337 332 324
277 288 298 302 305 311 318 324 327 329 332 333 333 331 332 333 335 336 336 335 335 335 335 333 331 329 330 334 335 331 330 331 332 334 333 336 333 339 343 342 340 337 331
275 289 296 300 307 315 318 320 323 326 330 332 331 332 332 332 335 335 335 335 334 335 334 333 331 331 333 337 337 334 334 335 337 339 338 339 336 336 340 341 345 346 342
276 285 291 299 305 310 314 316 319 323 328 330 330 331 331 333 335 336 336 336 334 334 334 333 333 335 337 340 339 338 338 339 341 344 345 345 343 339 341 344 351 358 4
273 282 289 295 301 305 310 314 317 323 326 328 329 331 333 334 336 335 337 336 335 335 335 334 335 337 341 341 340 341 340 341 344 348 352 350 349 347 347 351 359 6 13
270 278 286 293 299 306 312 314 318 322 324 326 330 332 334 334 335 335 336 336 335 335 335 335 337 340 342 340 339 343 344 345 346 351 353 353 353 357 355 3 12 23 31
Height
5861 5861 5860 5860 5859 5858 5856 5855 5853 5851 5849 5847 5844 5842 5841 5838 5836 5834 5833 5831 5829 5826 5825 5823 5821 5818 5816 5813 5811 5810 5808 5806 5803 5801 5798 5796 5794 5792 5791 5789 5787 5786 5785
5857 5857 5857 5856 5855 5853 5851 5850 5848 5846 5843 5840 5838 5836 5834 5831 5828 5826 5823 5822 5820 5818 5816 5813 5810 5808 5805 5803 5801 5798 5796 5792 5789 5787 5785 5783 5781 5779 5777 5775 5773 5772 5771
5852 5852 5851 5850 5848 5846 5844 5843 5841 5839 5837 5834 5832 5830 5827 5825 5821 5818 5816 5813 5810 5808 5805 5803 5799 5795 5792 5790 5788 5786 5783 5780 5777 5774 5770 5769 5766 5764 5762 5760 5759 5758 5757
5847 5847 5845 5843 5842 5840 5838 5836 5834 5832 5829 5826 5825 5823 5821 5817 5814 5811 5808 5805 5802 5799 5796 5792 5789 5786 5782 5778 5775 5772 5769 5766 5763 5759 5756 5754 5750 5746 5744 5743 5742 5740 5739
5841 5840 5839 5837 5835 5833 5832 5830 5827 5824 5821 5819 5816 5814 5812 5809 5805 5803 5799 5796 5792 5789 5786 5782 5778 5774 5770 5767 5763 5759 5756 5752 5748 5745 5742 5738 5734 5730 5728 5725 5722 5720 5720
5834 5833 5832 5830 5828 5826 5824 5821 5818 5816 5813 5810 5807 5804 5802 5799 5797 5793 5790 5786 5782 5778 5775 5772 5768 5764 5761 5757 5754 5750 5746 5741 5736 5732 5728 5724 5719 5715 5713 5709 5705 5702 5699
5827 5826 5824 5823 5820 5818 5815 5813 5811 5809 5807 5803 5800 5796 5793 5790 5787 5784 5781 5777 5774 5771 5767 5763 5759 5756 5752 5747 5743 5739 5734 5730 5725 5721 5716 5712 5706 5702 5698 5694 5691 5687 5684
5820 5820 5818 5816 5813 5810 5807 5805 5803 5801 5799 5797 5794 5791 5787 5783 5779 5776 5773 5770 5766 5762 5758 5754 5750 5746 5742 5738 5733 5728 5723 5717 5712 5707 5702 5696 5691 5686 5682 5677 5674 5670 5666
5813 5813 5811 5809 5806 5804 5800 5799 5796 5794 5791 5788 5786 5783 5779 5776 5772 5768 5764 5761 5757 5754 5750 5746 5742 5738 5733 5728 5722 5716 5710 5704 5698 5692 5686 5681 5675 5670 5664 5659 5654 5651 5647
5806 5805 5804 5802 5799 5797 5795 5793 5790 5787 5785 5782 5780 5777 5774 5771 5767 5763 5757 5753 5750 5745 5741 5737 5732 5727 5722 5716 5709 5702 5695 5688 5682 5675 5669 5662 5655 5650 5644 5639 5634 5630 5626
5798 5798 5798 5795 5793 5792 5790 5787 5784 5781 5779 5777 5775 5772 5770 5767 5764 5760 5754 5749 5743 5739 5735 5730 5724 5718 5711 5703 5697 5689 5681 5674 5667 5660 5652 5644 5636 5629 5623 5616 5611 5606 5602
5792 5792 5790 5789 5787 5786 5784 5782 5779 5776 5774 5771 5768 5765 5763 5760 5757 5753 5749 5744 5737 5730 5725 5720 5713 5707 5700 5692 5684 5675 5667 5658 5648 5640 5632 5624 5616 5608 5601 5594 5587 5581 5576
5785 5786 5785 5783 5780 5780 5778 5776 5773 5771 5769 5766 5764 5761 5757 5753 5750 5746 5742 5738 5732 5725 5717 5710 5703 5695 5688 5679 5670 5660 5649 5639 5628 5619 5610 5601 5592 5583 5575 5568 5561 5554 5549
5780 5780 5778 5776 5775 5773 5771 5769 5768 5765 5764 5761 5758 5755 5750 5746 5742 5738 5734 5730 5725 5717 5708 5700 5692 5684 5674 5664 5654 5642 5630 5619 5607 5597 5587 5576 5565 5556 5548 5540 5532 5525 5518
5775 5774 5771 5770 5769 5768 5765 5764 5763 5761 5758 5755 5751 5747 5743 5739 5735 5730 5725 5719 5713 5707 5698 5689 5680 5670 5659 5647 5636 5624 5612 5598 5584 5574 5561 5548 5538 5529 5519 5509 5502 5496 5490
5768 5766 5766 5766 5765 5763 5761 5759 5757 5755 5752 5749 5745 5742 5737 5733 5728 5722 5716 5709 5703 5696 5687 5677 5668 5657 5646 5633 5619 5606 5592 5578 5563 5551 5537 5523 5510 5500 5491 5484 5478 5473 5469
5762 5762 5762 5761 5760 5758 5756 5755 5752 5750 5747 5744 5741 5737 5732 5727 5721 5715 5708 5701 5693 5685 5677 5666 5656 5643 5632 5620 5606 5590 5573 5558 5542 5529 5517 5504 5492 5479 5468 5460 5455 5451 5448
5758 5758 5757 5756 5755 5754 5752 5750 5749 5746 5743 5740 5736 5732 5727 5721 5714 5707 5700 5692 5684 5675 5667 5657 5644 5632 5618 5605 5590 5575 5558 5542 5527 5515 5500 5488 5477 5464 5453 5442 5435 5430 5428
5754 5754 5752 5751 5750 5749 5748 5746 5745 5742 5739 5736 5732 5727 5721 5714 5707 5699 5692 5684 5675 5666 5655 5645 5633 5619 5605 5592 5577 5561 5544 5529 5515 5505 5489 5477 5465 5452 5441 5429 5419 5411 5410
5749 5749 5748 5747 5746 5745 5744 5742 5740 5737 5735 5731 5727 5721 5715 5707 5700 5693 5684 5675 5666 5656 5645 5632 5620 5607 5593 5579 5564 5550 5536 5519 5508 5497 5479 5471 5456 5445 5433 5423 5413 5404 5399
5744 5744 5744 5743 5742 5742 5740 5738 5736 5733 5730 5725 5720 5714 5707 5700 5692 5683 5674 5665 5655 5645 5634 5621 5609 5596 5582 5569 5553 5537 5524 5512 5499 5490 5474 5464 5451 5440 5428 5418 5408 5400 5394
5740 5740 5740 5739 5739 5738 5736 5734 5732 5729 5724 5719 5713 5707 5701 5693 5685 5675 5665 5654 5644 5635 5623 5611 5597 5585 5570 5556 5541 5526 5515 5504 5495 5483 5469 5457 5444 5434 5424 5414 5406 5398 5392
5736 5736 5736 5736 5735 5734 5733 5730 5727 5723 5719 5713 5708 5701 5694 5686 5678 5669 5658 5646 5635 5623 5611 5600 5588 5574 5561 5547 5533 5519 5506 5494 5485 5476 5463 5451 5439 5429 5420 5412 5404 5396 5389
5732 5733 5733 5732 5731 5730 5729 5726 5722 5717 5712 5708 5702 5695 5687 5679 5670 5661 5650 5639 5627 5615 5602 5590 5576 5562 5548 5535 5522 5509 5500 5488 5477 5468 5458 5446 5435 5425 5418 5409 5402 5395 5389
5729 5729 5729 5728 5727 5726 5723 5720 5716 5710 5705 5700 5694 5687 5679 5670 5662 5653 5642 5631 5618 5606 5592 5579 5566 5552 5538 5524 5513 5505 5495 5486 5476 5466 5455 5445 5434 5424 5416 5409 5403 5398 5392
5725 5724 5724 5724 5722 5720 5717 5713 5709 5704 5699 5693 5686 5678 5671 5663 5654 5645 5634 5624 5612 5600 5588 5574 5559 5544 5531 5518 5508 5500 5491 5482 5474 5466 5455 5445 5434 5426 5419 5412 5405 5400 5395